SKYSAT-C11 (42987 NORAD) Tracking and Keplerian Element Data

This shows tracking and keplerian element data for the satellite.

Feedback or suggestion? Click here.




ElementValue
Catalog42987
NameSKYSAT-C11
Epoch Orbit4959
Epoch Day266.37562779
Epoch Year2018
RAAN18.7677
Inclination97.4119
Eccentricity0.00116
Argument of Perigee82.9183
Mean Anonmoly277.3371
Mean Motion15.2146795
Decay Rate6.85E-06
L11 42987U 17068A 18266.37562779 .00000685 00000-0 33502-4 0 9997
L22 42987 97.4119 18.7677 0011600 82.9183 277.3371 15.21467950 49595

Live tracking and technical data element details for SKYSAT-C11 (NORAD 42987). SKYSAT-C11 can be tracked NOW for your location showing map with azimuth and elevation plus other details from your city location.

Track the satellite on the map from your city or location and see movement details for azimuth, elevation, latitude, longitude, range, height, and movement on the map or in text.







IsCatalogInMostPopularTable: catalog: 42987, numindb: 111
Update: records affected: 1



GetName: 42987 SKYSAT-C11

Hit Count: updated at: Tue, 25 Sep 2018 14:32:45 GMT